Вернуться в каталог

COSMOS 1275 DEB

АктивенPO
NORAD 42233·DEBRIS·🇷🇺 Russia

Запущен Jun 4, 1981 с Plesetsk Cosmodrome

Loading…

Ближайшие Пролёты (ближайшие 24 часа)

TLE

УстаревающийSource: Space-Track

Эпоха: Sep 8, 2026, 10:08 UTC

1 42233U 81053UZ  26251.42278657  .00000506  00000-0  55331-3 0  9999
2 42233  83.0398 295.6807 0130640 275.2984  83.3274 13.67255814591559

Отслеживайте COSMOS 1275 DEB в реальном времени с AllMySat

Download on the App Store